Hurricane Symbol View the latest observations near Atlantic Potential Tropical Cyclone One.

Station OCIM2 - 8570283 - Ocean City Inlet, MD Image indicating link to RSS feed of recent meteorological observations for station OCIM2


Conditions at OCIM2 as of
(11:18 am EDT)
1518 GMT on 06/18/2024:
     

Click on the graph icon in the table below to see a time series plot of the last five days of that observation.

5-day plot - Wind Direction Wind Direction (WDIR): S ( 180 deg true )
5-day plot - Wind Speed Wind Speed (WSPD): 7.0 kts
5-day plot - Wind Gust Wind Gust (GST): 9.9 kts
5-day plot - Atmospheric Pressure Atmospheric Pressure (PRES):30.25 in
5-day plot - Air Temperature Air Temperature (ATMP): 74.1 °F
5-day plot - Water Temperature Water Temperature (WTMP): 71.1 °F
5-day plot - Wind Speed at 10 Meters Wind Speed at 10 meters (WSPD10M): 7.8 kts
5-day plot - Wind Speed at 20 Meters Wind Speed at 20 meters (WSPD20M): 7.8 kts
5-day plot -  Wind Speed, Wind Gust and Atmospheric Pressure Combined plot of Wind Speed, Gust, and Air Pressure
NOS Water Level Observation Network Water Level
Previous observations
TIME
(EDT)
5-day plot - Wind Direction
WDIR
 
5-day plot - Wind Speed
WSPD
kts
5-day plot - Wind Gust
GST
kts
5-day plot - Wave Height
WVHT
ft
5-day plot - Dominant Wave Period
DPD
sec
5-day plot - Average Wave Period
APD
sec
5-day plot - Mean Wave Direction
MWD
 
5-day plot - Atmospheric Pressure
PRES
in
5-day plot - Pressure Tendency
PTDY
in
5-day plot - Air Temperature
ATMP
°F
5-day plot - Water Temperature
WTMP
°F
5-day plot - Dew Point
DEWP
°F
5-day plot - Salinity
SAL
psu
5-day plot - Visibility
VIS
nmi
5-day plot - Tide (above MLLW)
TIDE
ft
2024-06-18 11:12 am S 6.0 8.9----30.25- 74.3 70.9----
2024-06-18 11:06 am S 6.0 8.9----30.24- 74.5 70.5----
2024-06-18 11:00 am S 7.0 8.9----30.24+0.02 73.9 70.3----
2024-06-18 10:54 am S 8.0 9.9----30.24- 74.1 70.2----
2024-06-18 10:48 am S 7.0 11.1----30.24- 74.3 69.8----
2024-06-18 10:42 am S 6.0 9.9----30.24- 74.3 69.4----
2024-06-18 10:36 am S 7.0 8.9----30.25- 73.9 69.1----
2024-06-18 10:30 am S 7.0 9.9----30.25- 73.6 68.7----
2024-06-18 10:24 am S 7.0 8.9----30.25- 73.4 68.2----
2024-06-18 10:18 am S 6.0 8.9----30.25- 73.2 67.8----
2024-06-18 10:12 am S 7.0 8.9----30.24- 73.4 67.5----
2024-06-18 10:06 am S 7.0 9.9----30.24- 73.0 67.1----
2024-06-18 10:00 am S 7.0 8.9----30.24+0.03 73.0 66.7----
2024-06-18 09:54 am S 6.0 8.0----30.24- 73.0 66.4----
2024-06-18 09:48 am S 6.0 8.9----30.24- 73.2 66.2----
2024-06-18 09:42 am S 6.0 8.9----30.24- 73.2 66.0----
2024-06-18 09:36 am S 5.1 8.9----30.24- 73.4 65.8----
2024-06-18 09:30 am S 6.0 8.9----30.24- 72.9 65.8----
2024-06-18 09:24 am S 6.0 8.0----30.24- 72.9 65.7----
2024-06-18 09:18 am S 5.1 7.0----30.24- 72.7 65.7----
2024-06-18 09:12 am S 5.1 7.0----30.24- 72.5 65.7----
2024-06-18 09:06 am S 5.1 8.0----30.24- 71.8 65.5----
2024-06-18 09:00 am S 6.0 8.0----30.24+0.03 71.8 65.5----
2024-06-18 08:54 am S 6.0 8.0----30.24- 71.4 65.7----
2024-06-18 08:48 am S 6.0 7.0----30.24- 71.2 65.7----
2024-06-18 08:42 am S 5.1 7.0----30.23- 71.2 65.7----
2024-06-18 08:36 am S 5.1 7.0----30.23- 71.2 65.8----
2024-06-18 08:30 am S 5.1 7.0----30.23- 70.9 65.8----
2024-06-18 08:24 am S 5.1 7.0----30.23- 70.5 66.0----
2024-06-18 08:18 am S 5.1 7.0----30.23- 70.7 66.0----
2024-06-18 08:12 am S 6.0 7.0----30.23- 70.3 66.2----
2024-06-18 08:06 am S 5.1 7.0----30.23- 69.8 66.4----
2024-06-18 08:00 amSSW 5.1 6.0----30.23+0.04 69.6 66.4----
2024-06-18 07:54 amSSW 5.1 7.0----30.23- 69.6 66.4----
2024-06-18 07:48 am S 5.1 7.0----30.23- 69.3 66.4----
2024-06-18 07:42 am S 5.1 7.0----30.22- 69.1 66.6----
2024-06-18 07:36 am S 2.9 5.1----30.22- 68.5 66.6----
2024-06-18 07:30 am S 4.1 5.1----30.22- 68.5 66.6----
2024-06-18 07:24 am S 2.9 5.1----30.22- 68.2 66.7----
2024-06-18 07:18 am S 4.1 5.1----30.22- 68.0 66.9----
2024-06-18 07:12 am S 4.1 5.1----30.22- 67.8 66.9----
2024-06-18 07:06 amSSW 5.1 5.1----30.22- 67.6 67.3----
2024-06-18 07:00 amSSW 5.1 5.1----30.21+0.02 67.6 67.6----
2024-06-18 06:54 amSSW 5.1 6.0----30.21- 67.6 67.5----
2024-06-18 06:48 amSSW 4.1 5.1----30.21- 67.6 67.5----
2024-06-18 06:42 amSSW 4.1 5.1----30.21- 67.5 67.5----
2024-06-18 06:36 amSSW 4.1 4.1----30.21- 67.5 67.5----
2024-06-18 06:30 amSSW 4.1 4.1----30.21- 67.5 67.6----
2024-06-18 06:24 amSSW 4.1 5.1----30.21- 67.5 67.6----
2024-06-18 06:18 amSSW 5.1 6.0----30.21- 67.6 67.8----
2024-06-18 06:12 am S 4.1 5.1----30.21- 67.6 67.8----
2024-06-18 06:06 amSSW 5.1 6.0----30.21- 67.6 68.0----
2024-06-18 06:00 amSSW 5.1 6.0----30.20+0.01 67.6 68.0----
2024-06-18 05:54 amSSW 5.1 6.0----30.20- 67.6 68.0----
2024-06-18 05:48 amSSW 6.0 7.0----30.20- 67.6 68.0----
2024-06-18 05:42 amSSW 6.0 8.0----30.19- 68.0 68.4----
2024-06-18 05:36 am S 6.0 7.0----30.19- 68.0 68.0----
2024-06-18 05:30 am S 5.1 6.0----30.19- 68.0 67.3----
2024-06-18 05:24 am S 5.1 7.0----30.19- 68.0 67.5----
2024-06-18 05:18 am S 5.1 7.0----30.19- 68.2 67.3----
2024-06-18 05:12 amSSW 6.0 7.0----30.19- 68.2 68.0----
2024-06-18 05:06 amSSW 6.0 8.0----30.19- 68.2 69.3----
2024-06-18 05:00 amSSW 7.0 8.0----30.19+0.00 68.2 69.6----
2024-06-18 04:54 amSSW 7.0 8.0----30.19- 68.4 71.2----
2024-06-18 04:48 amSSW 7.0 8.0----30.19- 68.4 72.3----
2024-06-18 04:42 amSSW 7.0 8.0----30.19- 68.2 73.0----
2024-06-18 04:36 amSSW 6.0 8.0----30.19- 68.5 73.6----
2024-06-18 04:30 amSSW 7.0 8.0----30.19- 68.7 74.3----
2024-06-18 04:24 amSSW 6.0 8.0----30.19- 68.9 74.8----
2024-06-18 04:18 amSSW 7.0 8.0----30.19- 69.1 75.6----
2024-06-18 04:12 amSSW 6.0 8.0----30.19- 69.1 75.9----
2024-06-18 04:06 amSSW 6.0 8.9----30.19- 69.3 75.7----
2024-06-18 04:00 amSSW 7.0 8.9----30.19+0.02 68.9 75.4----
2024-06-18 03:54 amSSW 7.0 8.0----30.19- 69.1 75.0----
2024-06-18 03:48 amSSW 7.0 8.0----30.19- 69.1 74.7----
2024-06-18 03:42 amSSW 7.0 8.0----30.19- 69.1 74.3----
2024-06-18 03:36 amSSW 6.0 8.0----30.19- 69.3 73.8----
2024-06-18 03:30 amSSW 7.0 8.0----30.19- 69.3 73.6----
2024-06-18 03:24 amSSW 7.0 8.0----30.19- 69.3 73.6----
2024-06-18 03:18 amSSW 7.0 8.0----30.19- 69.4 73.4----
2024-06-18 03:12 amSSW 6.0 7.0----30.19- 69.3 73.4----
2024-06-18 03:06 amSSW 6.0 7.0----30.19- 69.3 73.2----
2024-06-18 03:00 amSSW 6.0 8.0----30.19+0.01 69.3 73.2----
2024-06-18 02:54 amSSW 7.0 8.0----30.19- 69.3 73.0----
2024-06-18 02:48 amSSW 6.0 7.0----30.19- 69.3 73.0----
2024-06-18 02:42 amSSW 6.0 8.0----30.19- 69.3 72.9----
2024-06-18 02:36 amSSW 6.0 7.0----30.19- 69.3 73.0----
2024-06-18 02:30 amSSW 6.0 8.0----30.19- 69.3 72.9----
2024-06-18 02:24 amSSW 5.1 7.0----30.19- 69.4 72.9----
2024-06-18 02:18 am S 6.0 8.0----30.19- 69.4 72.7----
2024-06-18 02:12 amSSW 6.0 9.9----30.19- 69.4 72.7----
2024-06-18 02:06 amSSW 7.0 8.9----30.19- 69.6 72.5----
2024-06-18 02:00 amSSW 6.0 9.9----30.19+0.02 69.4 72.5----
2024-06-18 01:54 amSSW 7.0 8.9----30.19- 69.4 72.5----
2024-06-18 01:48 amSSW 7.0 8.9----30.19- 69.6 72.3----
2024-06-18 01:42 amSSW 7.0 8.0----30.19- 69.6 72.1----
2024-06-18 01:36 amSSW 8.0 8.9----30.19- 69.8 72.1----
2024-06-18 01:30 amSSW 8.0 9.9----30.18- 70.0 71.8----
2024-06-18 01:24 amSSW 8.9 11.1----30.18- 70.2 71.8----
2024-06-18 01:18 amSSW 8.0 11.1----30.18- 70.3 71.6----
2024-06-18 01:12 amSSW 8.9 11.1----30.18- 70.5 71.6----
2024-06-18 01:06 am S 8.0 11.1----30.17- 70.5 71.4----
2024-06-18 01:00 am S 8.0 11.1----30.17-0.01 70.5 71.2----
2024-06-18 12:54 am S 8.0 12.0----30.17- 70.5 71.1----
2024-06-18 12:48 am S 8.9 11.1----30.17- 70.5 70.9----
2024-06-18 12:42 am S 8.9 12.0----30.16- 70.3 70.7----
2024-06-18 12:36 am S 8.0 12.0----30.16- 70.3 70.5----
2024-06-18 12:30 am S 8.0 11.1----30.16- 70.2 70.2----
2024-06-18 12:24 am S 8.0 9.9----30.17- 70.2 70.0----
2024-06-18 12:18 am S 7.0 8.9----30.17- 70.2 69.8----
2024-06-18 12:12 amSSW 7.0 8.9----30.18- 70.2 69.6----
2024-06-18 12:06 am S 7.0 8.9----30.18- 70.2 69.4----
2024-06-18 12:00 amSSW 7.0 9.9----30.18+0.02 70.3 69.3----
2024-06-17 11:54 pmSSW 7.0 8.9----30.18- 70.3 69.3----
2024-06-17 11:48 pm S 7.0 9.9----30.17- 70.3 69.3----
2024-06-17 11:42 pm S 7.0 9.9----30.17- 70.2 69.1----
2024-06-17 11:36 pm S 7.0 8.9----30.17- 70.2 69.1----
2024-06-17 11:30 pm S 6.0 8.9----30.17- 70.0 69.1----
2024-06-17 11:24 pmSSW 7.0 9.9----30.17- 70.0 69.1----
2024-06-17 11:18 pmSSW 8.0 9.9----30.16- 70.2 69.1----
2024-06-17 11:12 pmSSW 7.0 9.9----30.16- 70.2 68.9----
2024-06-17 11:06 pmSSW 8.0 9.9----30.16- 70.2 69.1----
2024-06-17 11:00 pm S 8.0 9.9----30.16+0.01 70.2 68.9----
2024-06-17 10:54 pmSSW 8.0 8.9----30.16- 70.2 68.9----
2024-06-17 10:48 pm S 7.0 9.9----30.17- 70.0 68.9----
2024-06-17 10:42 pmSSW 7.0 9.9----30.17- 70.0 68.9----
2024-06-17 10:36 pmSSW 7.0 8.9----30.17- 70.0 68.9----
2024-06-17 10:30 pmSSW 8.0 8.9----30.17- 69.8 68.9----
2024-06-17 10:24 pmSSW 7.0 8.9----30.17- 69.8 68.9----
2024-06-17 10:18 pmSSW 6.0 8.0----30.18- 69.6 68.9----
2024-06-17 10:12 pmSSW 7.0 8.9----30.18- 69.8 68.9----
2024-06-17 10:06 pmSSW 8.0 9.9----30.17- 69.8 68.9----
2024-06-17 10:00 pmSSW 8.9 9.9----30.18+0.04 69.6 68.9----
2024-06-17 09:54 pmSSW 8.0 8.9----30.17- 69.8 68.9----
2024-06-17 09:48 pmSSW 8.0 8.9----30.17- 69.8 68.9----
2024-06-17 09:42 pmSSW 8.0 9.9----30.17- 69.8 68.9----
2024-06-17 09:36 pmSSW 8.0 8.9----30.17- 69.8 68.9----
2024-06-17 09:30 pmSSW 8.0 8.9------ 70.2 68.9----
2024-06-17 09:24 pmSSW 7.0 8.9------ 70.5 68.9----
2024-06-17 09:18 pm S 8.0 11.1----30.17- 70.5 68.9----
2024-06-17 09:12 pmSSW 7.0 8.9----30.17- 70.3 68.9----
2024-06-17 09:06 pmSSW 8.0 9.9----30.16- 70.5 68.9----
2024-06-17 09:00 pmSSW 8.0 11.1----30.16+0.02 70.5 69.1----
2024-06-17 08:54 pmSSW 8.9 11.1----30.16- 70.7 69.1----
2024-06-17 08:48 pmSSW 8.9 11.1----30.16- 70.7 69.1----
2024-06-17 08:42 pmSSW 9.9 12.0----30.16- 70.9 69.1----
2024-06-17 08:36 pmSSW 9.9 12.0----30.16- 70.9 69.1----
2024-06-17 08:30 pmSSW 11.1 13.0----30.15- 71.1 69.1----
2024-06-17 08:24 pmSSW 11.1 13.0----30.15- 71.1 69.1----
2024-06-17 08:18 pmSSW 9.9 12.0----30.15- 71.1 69.1----
2024-06-17 08:12 pmSSW 8.9 12.0----30.15- 71.2 69.1----
2024-06-17 08:06 pmSSW 8.9 12.0----30.16- 71.4 69.1----
2024-06-17 08:00 pm S 8.9 11.1----30.15+0.00 71.6 69.1----
2024-06-17 07:54 pmSSW 8.9 12.0----30.15- 71.8 69.1----
2024-06-17 07:48 pm S 8.0 12.0----30.15- 72.0 69.1----
2024-06-17 07:42 pmSSW 8.9 12.0----30.14- 71.8 69.1----
2024-06-17 07:36 pm S 8.9 12.0----30.14- 72.1 69.1----
2024-06-17 07:30 pm S 8.0 11.1----30.14- 72.3 69.1----
2024-06-17 07:24 pm S 8.9 12.0----30.14- 72.5 69.1----
2024-06-17 07:00 pm S 8.0 11.1----30.14-0.01 72.1 69.1----
2024-06-17 06:54 pmSSW 8.9 12.0----30.14- 72.1 69.3----
2024-06-17 06:48 pmSSW 9.9 12.0----30.14- 72.1 69.3----
2024-06-17 06:42 pmSSW 9.9 12.0----30.13- 72.1 69.3----
2024-06-17 06:36 pmSSW 9.9 12.0----30.13- 72.1 69.3----
2024-06-17 06:30 pmSSW 11.1 12.0----30.13- 72.1 69.3----
2024-06-17 06:24 pmSSW 9.9 13.0----30.13- 72.3 69.3----
2024-06-17 06:18 pmSSW 11.1 13.0----30.13- 72.3 69.3----
2024-06-17 06:12 pmSSW 11.1 13.0----30.14- 72.1 69.4----
2024-06-17 06:06 pmSSW 9.9 12.0----30.14- 72.1 69.4----
2024-06-17 06:00 pm-------30.14-0.02- 69.6----
2024-06-17 05:54 pm-------30.14-- 69.6----
2024-06-17 05:48 pmSSW 9.9 12.0----30.14-- 69.6----
2024-06-17 05:42 pmSSW 8.9 12.0----30.14-- 69.6----
2024-06-17 05:36 pm S 8.0 11.1----30.14-- 69.6----
2024-06-17 05:30 pmSSW 9.9 12.0----30.14- 72.9 69.6----
2024-06-17 05:24 pmSSW 9.9 12.0----30.14- 72.7 69.8----
2024-06-17 05:18 pmSSW 11.1 12.0------ 72.7 69.8----
2024-06-17 05:12 pmSSW 9.9 13.0------ 73.0 69.8----
2024-06-17 05:06 pmSSW 9.9 12.0------ 73.2 69.8----
2024-06-17 05:00 pm S 8.0 11.1----30.15-0.02 73.8 70.0----
2024-06-17 04:54 pm S 8.9 13.0----30.15- 73.8 70.0----
2024-06-17 04:48 pm S 8.9 14.0----30.15- 73.8 70.0----
2024-06-17 04:42 pm S 8.9 14.0----30.15- 73.6 70.0----
2024-06-17 04:36 pmSSW 8.9 12.0----30.16- 73.4 70.0----
2024-06-17 04:30 pm S 8.9 13.0----30.15- 73.4 70.0----
2024-06-17 04:24 pmSSW 9.9 13.0----30.16- 73.2 70.2----
2024-06-17 04:18 pmSSW 11.1 13.0----30.16- 73.4 70.2----
2024-06-17 04:12 pmSSW 11.1 14.0----30.16- 73.2 70.2----
2024-06-17 04:06 pmSSW 9.9 13.0----30.15- 73.6 70.3----
2024-06-17 04:00 pm S 8.9 13.0----30.15-0.03 73.6 70.3----
2024-06-17 03:54 pmSSW 9.9 13.0----30.16- 73.4 70.9----
2024-06-17 03:48 pm S 9.9 13.0----30.16- 74.1 71.6----
2024-06-17 03:42 pm S 8.0 12.0----30.16- 74.7 71.8----
2024-06-17 03:36 pm S 8.9 13.0----30.16- 73.9 72.1----
2024-06-17 03:30 pm S 9.9 14.0----30.16- 74.1 72.3----
2024-06-17 03:24 pm S 9.9 13.0----30.16- 74.1 72.9----
2024-06-17 03:18 pm S 8.0 12.0----30.16- 74.5 73.2----
2024-06-17 03:12 pm S 9.9 14.0----30.16- 74.8 73.6----
2024-06-17 03:06 pm S 9.9 14.0----30.16- 74.8 73.8----
2024-06-17 03:00 pm S 8.9 13.0----30.16-0.03 74.1 74.1----
2024-06-17 02:54 pmSSW 12.0 15.0----30.17- 73.6 74.1----
2024-06-17 02:48 pmSSW 12.0 15.0----30.17- 73.6 74.3----
2024-06-17 02:42 pm S 8.9 14.0----30.16- 73.9 74.5----
2024-06-17 02:36 pm S 8.9 14.0----30.16- 74.5 74.7----
2024-06-17 02:30 pm S 9.9 13.0----30.16- 74.3 74.7----
2024-06-17 02:24 pm S 9.9 14.0----30.16- 74.3 74.5----
2024-06-17 02:18 pm S 8.9 13.0----30.16- 74.1 74.1----
2024-06-17 02:12 pm S 9.9 13.0----30.17- 74.3 73.9----
2024-06-17 02:06 pmSSW 9.9 15.0----30.17- 74.1 73.6----
2024-06-17 02:00 pm S 8.9 13.0----30.17-0.03 74.3 73.6----
2024-06-17 01:54 pm S 8.9 12.0----30.17- 74.5 73.6----
2024-06-17 01:48 pmSSW 11.1 15.0----30.17- 74.1 73.2----
2024-06-17 01:42 pmSSW 12.0 14.0----30.17- 73.6 73.2----
2024-06-17 01:36 pmSSW 12.0 15.0----30.17- 73.4 73.0----
2024-06-17 01:30 pmSSW 11.1 14.0----30.17- 73.6 73.0----
2024-06-17 01:24 pmSSW 9.9 13.0----30.17- 73.9 72.9----
2024-06-17 01:18 pmSSW 9.9 14.0----30.17- 73.9 72.7----
2024-06-17 01:12 pmSSW 8.9 12.0----30.18- 73.8 72.7----
2024-06-17 01:06 pmSSW 9.9 13.0----30.18- 73.8 72.5----
2024-06-17 01:00 pmSSW 8.9 13.0----30.18-0.03 73.8 72.3----
2024-06-17 12:54 pm S 8.0 12.0----30.18- 74.1 72.1----
2024-06-17 12:48 pm S 8.0 13.0----30.18- 74.7 72.1----
2024-06-17 12:42 pm S 9.9 13.0----30.18- 75.0 72.0----
2024-06-17 12:36 pm S 9.9 13.0----30.18- 74.7 72.0----
2024-06-17 12:30 pm S 9.9 13.0----30.18- 74.7 72.0----
2024-06-17 12:24 pm S 9.9 13.0----30.18- 75.0 71.6----
2024-06-17 12:18 pm S 8.9 13.0----30.19- 74.8 71.4----
2024-06-17 12:12 pm S 8.9 13.0----30.19- 74.5 71.2----
2024-06-17 12:06 pm S 8.9 12.0----30.19- 74.7 71.1----
2024-06-17 12:00 pm S 8.9 12.0----30.19+0.00 74.7 70.9----
2024-06-17 11:54 am S 6.0 11.1----30.19- 74.5 70.7----
2024-06-17 11:48 am S 8.9 13.0----30.19- 74.3 70.5----
2024-06-17 11:42 am S 8.9 12.0----30.19- 74.3 70.3----
2024-06-17 11:36 am S 8.0 12.0----30.19- 74.3 70.2----
2024-06-17 11:30 am S 8.9 11.1----30.19-- 70.2----
2024-06-17 11:24 am S 8.9 12.0----30.19-- 69.8----
2024-06-17 11:18 am S 8.0 11.1----30.20- 74.3 69.6----
2024-06-17 11:12 am S 8.9 11.1----30.20- 73.9 69.6----
2024-06-17 11:06 am S 8.0 12.0----30.20- 74.1 69.4----
2024-06-17 11:00 am S 8.0 9.9----30.20+0.00 73.9 69.3----
2024-06-17 10:54 am S 8.9 11.1----30.20- 73.8 69.1----